Puyallup, WA
on Wednesday, February 20, 2013

Wednesday
Previous Day Next Day
Daily Summary
 ActualAverage (KSEA)Record (KSEA)
Temperature
Mean Temperature °F 44°F  
Max Temperature 46°F 50°F 62°F (1977)
Min Temperature 24°F 37°F 25°F (1955)
Degree Days
Heating Degree Days 30 21  
Month to date heating degree days 438  
Since 1 July heating degree days 3087  
Cooling Degree Days 0 0  
Month to date cooling degree days 0  
Year to date cooling degree days 0  
Moisture
Dew Point 33°F   
Average Humidity 90    
Maximum Humidity 100    
Minimum Humidity 57    
Precipitation
Precipitation 0.00 in 0.12 in 0.74 in (1984)
Month to date precipitation 2.53  
Year to date precipitation 8.10  
Snow
Snow 0.00 in in 1.40 in (1993)
Month to date snowfall  
Since 1 July snowfall  
Snow Depth in   
Wind
Wind Speed 1 mph   
Max Wind Speed 12 mph   
Max Gust Speed 16 mph   
Visibility 10 miles   
Events Fog , Rain   

Key: T is trace of precipitation, MM is missing value
Source: NWS Daily Summary
Time(PST)TemperatureDew PointHumidity Pressure Visibility Wind DirectionWind SpeedGust SpeedPrecipitationEvents Conditions
12:15 AM 28.4°F 28.4°F 100% 30.01 in 10.0 miles Calm Calm - N/A   Clear
12:55 AM 26.6°F 26.6°F 100% 30.02 in 10.0 miles Calm Calm - N/A   Clear
1:15 AM 28.4°F 28.4°F 100% 30.02 in 10.0 miles Calm Calm - N/A   Clear
1:35 AM 26.6°F 26.6°F 100% 30.02 in 10.0 miles Calm Calm - N/A   Clear
1:55 AM 30.2°F 30.2°F 100% 30.02 in 10.0 miles Calm Calm - N/A   Clear
2:15 AM 28.4°F 28.4°F 100% 30.02 in 10.0 miles Calm Calm - N/A   Clear
2:35 AM 26.6°F 26.6°F 100% 30.03 in 10.0 miles Calm Calm - N/A   Clear
2:55 AM 24.8°F 24.8°F 100% 30.03 in 10.0 miles Calm Calm - N/A   Clear
3:15 AM 24.8°F 24.8°F 100% 30.04 in 10.0 miles Calm Calm - N/A   Clear
3:35 AM 28.4°F 28.4°F 100% 30.04 in 10.0 miles Calm Calm - N/A   Clear
3:55 AM 26.6°F 26.6°F 100% 30.04 in 10.0 miles Calm Calm - N/A   Clear
4:15 AM 28.4°F 28.4°F 100% 30.04 in 10.0 miles Calm Calm - N/A   Mostly Cloudy
4:35 AM 28.4°F 28.4°F 100% 30.04 in 10.0 miles Calm Calm - N/A   Overcast
4:55 AM 28.4°F 28.4°F 100% 30.04 in 10.0 miles Calm Calm - N/A   Overcast
5:15 AM 30.2°F 30.2°F 100% 30.04 in 10.0 miles Calm Calm - N/A   Overcast
5:35 AM 32.0°F 32.0°F 100% 30.04 in 10.0 miles Calm Calm - N/A   Overcast
5:55 AM 32.0°F 32.0°F 100% 30.04 in 10.0 miles Calm Calm - N/A   Overcast
6:15 AM 32.0°F 32.0°F 100% 30.03 in 10.0 miles Calm Calm - N/A   Overcast
6:35 AM 32.0°F 32.0°F 100% 30.03 in 10.0 miles Calm Calm - N/A   Overcast
6:55 AM 32.0°F 32.0°F 100% 30.03 in 10.0 miles Calm Calm - N/A   Overcast
7:15 AM 32.0°F 32.0°F 100% 30.04 in 10.0 miles Calm Calm - N/A   Overcast
7:35 AM 32.0°F 32.0°F 100% 30.04 in 10.0 miles Calm Calm - N/A   Overcast
7:55 AM 32.0°F 32.0°F 100% 30.04 in 10.0 miles Calm Calm - N/A   Overcast
8:15 AM 32.0°F 32.0°F 100% 30.03 in 10.0 miles Calm Calm - N/A   Overcast
8:35 AM 33.8°F 33.8°F 100% 30.04 in 10.0 miles Calm Calm - N/A   Overcast
8:55 AM 33.8°F 32.0°F 93% 30.03 in 10.0 miles Calm Calm - N/A   Overcast
9:15 AM 35.6°F 33.8°F 93% 30.04 in 10.0 miles Calm Calm - N/A   Mostly Cloudy
9:35 AM 35.6°F 33.8°F 93% 30.04 in 10.0 miles Calm Calm - N/A   Overcast
9:55 AM 37.4°F 35.6°F 93% 30.04 in 10.0 miles Calm Calm - N/A   Mostly Cloudy
10:15 AM 39.2°F 33.8°F 81% 30.03 in 10.0 miles Calm Calm - N/A   Mostly Cloudy
10:35 AM 41.0°F 33.8°F 76% 30.03 in 10.0 miles Calm Calm - N/A   Mostly Cloudy
10:55 AM 44.6°F 33.8°F 66% 30.04 in 10.0 miles SW 5.8 mph - N/A   Mostly Cloudy
11:15 AM 42.8°F 33.8°F 70% 30.05 in 10.0 miles SW 6.9 mph - N/A   Mostly Cloudy
11:35 AM 44.6°F 35.6°F 71% 30.05 in 10.0 miles SW 6.9 mph - N/A   Mostly Cloudy
11:55 AM 42.8°F 35.6°F 76% 30.05 in 10.0 miles SW 6.9 mph - N/A   Overcast
12:15 PM 44.6°F 35.6°F 71% 30.04 in 10.0 miles WSW 11.5 mph 16.1 mph N/A   Overcast
12:35 PM 44.6°F 35.6°F 71% 30.03 in 10.0 miles SW 5.8 mph - N/A   Scattered Clouds
12:55 PM 44.6°F 35.6°F 71% 30.02 in 10.0 miles SSW 4.6 mph - N/A   Partly Cloudy
1:15 PM 44.6°F 32.0°F 61% 30.01 in 10.0 miles SW 6.9 mph - N/A   Scattered Clouds
1:35 PM 46.4°F 32.0°F 57% 30.00 in 10.0 miles SSW 3.5 mph - N/A   Scattered Clouds
1:55 PM 46.4°F 32.0°F 57% 30.00 in 10.0 miles WSW 8.1 mph - N/A   Mostly Cloudy
2:15 PM 46.4°F 32.0°F 57% 29.99 in 10.0 miles SW 5.8 mph - N/A   Mostly Cloudy
2:35 PM 44.6°F 32.0°F 61% 29.99 in 10.0 miles SSW 6.9 mph - N/A   Scattered Clouds
3:15 PM 42.8°F 35.6°F 76% 29.99 in 8.0 miles Calm Calm - N/A Rain Light Rain
3:35 PM 41.0°F 37.4°F 87% 29.99 in 9.0 miles SW 4.6 mph - N/A   Scattered Clouds
3:55 PM 42.8°F 37.4°F 81% 29.99 in 10.0 miles Calm Calm - N/A   Clear
4:15 PM 42.8°F 35.6°F 76% 29.99 in 10.0 miles Calm Calm - N/A   Partly Cloudy
4:35 PM 42.8°F 35.6°F 76% 29.99 in 10.0 miles Calm Calm - N/A   Partly Cloudy
4:55 PM 42.8°F 35.6°F 76% 29.99 in 10.0 miles Calm Calm - N/A   Mostly Cloudy
5:15 PM 41.0°F 37.4°F 87% 30.00 in 5.0 miles Calm Calm - N/A Rain Light Rain
5:35 PM 41.0°F 37.4°F 87% 30.00 in 9.0 miles Calm Calm - N/A Rain Light Rain
5:55 PM 41.0°F 37.4°F 87% 30.00 in 10.0 miles Calm Calm - N/A Rain Light Rain
6:15 PM 39.2°F 39.2°F 100% 30.00 in 10.0 miles Calm Calm - N/A   Mostly Cloudy
6:35 PM 39.2°F 39.2°F 100% 30.00 in 10.0 miles Calm Calm - N/A   Mostly Cloudy
7:15 PM 39.2°F 39.2°F 100% 30.00 in 10.0 miles Calm Calm - N/A   Mostly Cloudy
7:35 PM 39.2°F 39.2°F 100% 30.00 in 10.0 miles Calm Calm - N/A Rain Light Rain
7:55 PM 37.4°F 37.4°F 100% 30.00 in 10.0 miles Calm Calm - N/A   Partly Cloudy
8:35 PM 37.4°F 37.4°F 100% 30.00 in 10.0 miles Calm Calm - N/A   Overcast
8:55 PM 37.4°F 37.4°F 100% 30.01 in 9.0 miles Calm Calm - N/A   Overcast
9:15 PM 37.4°F 37.4°F 100% 30.01 in 10.0 miles Calm Calm - N/A   Overcast
9:35 PM 37.4°F 37.4°F 100% 30.01 in 10.0 miles Calm Calm - N/A   Overcast
9:55 PM 37.4°F 37.4°F 100% 30.02 in 10.0 miles Calm Calm - N/A   Overcast
10:15 PM 37.4°F 37.4°F 100% 30.02 in 10.0 miles Calm Calm - N/A   Overcast
10:35 PM 37.4°F 37.4°F 100% 30.02 in 10.0 miles Calm Calm - N/A   Overcast
10:55 PM 37.4°F 37.4°F 100% 30.02 in 10.0 miles Calm Calm - N/A   Mostly Cloudy
11:15 PM 35.6°F 35.6°F 100% 30.02 in 7.0 miles Calm Calm - N/A   Scattered Clouds
11:35 PM 35.6°F 35.6°F 100% 30.01 in 5.0 miles Calm Calm - N/A   Partly Cloudy
11:55 PM 32.0°F 32.0°F 100% 30.01 in 0.5 miles Calm Calm - N/A Fog Fog
Moon Phase
Feb. 20 Feb. 25 Mar. 04 Mar. 11 Mar. 19
Sunrise:07:04 AM (PST) Moon Rise:12:55 PM (PST)2/20
Sunset:05:41 PM (PST) Moon Set:03:41 AM (PST)2/20

Copyright © 2014 The Weather Underground, Inc.